Regional Weather Roundup
Issued by NWS

Home | Current Version | Previous Version | Graphics & Text | Print | Product List | Glossary On
Versions: 1 2 3 4 5 6 7 8 9 10 11 12 13 14 15 16 17 18 19 20 21 22 23 24 25 26 27 28 29 30 31 32 33 34 35 36 37 38 39 40 41 42 43 44 45 46 47 48 49 50
000
ASUS43 KLOT 281008
RWRIL

ILLINOIS REGIONAL WEATHER ROUNDUP
NATIONAL WEATHER SERVICE CHICAGO/ROMEOVILLE IL
500 AM CDT THU MAY 28 2015

NOTE: "FAIR" INDICATES FEW OR NO CLOUDS BELOW 12,000 FEET WITH NO
SIGNIFICANT WEATHER AND/OR OBSTRUCTIONS TO VISIBILITY.

* THESE STATIONS ARE NOT UNDER NWS QUALITY CONTROL. THEY ALSO MAY NOT
  REPORT WEATHER SUCH AS PRECIPITATION OR FOG.

ILZ001-002-007-009-015-016-024-281100-
NORTHWEST ILLINOIS

CITY           SKY/WX    TMP DP  RH WIND       PRES   REMARKS
MOLINE         CLEAR     60  55  83 CALM      30.15S
STERLING*      CLEAR     57  54  88 CALM      30.16S
SAVANNA*       CLEAR     57  55  93 CALM      30.16S
$$

ILZ003-004-008-010-011-017-018-281100-
NORTH CENTRAL ILLINOIS

CITY           SKY/WX    TMP DP  RH WIND       PRES   REMARKS
ROCKFORD       PTCLDY    58  54  86 CALM      30.18R
FREEPORT*      CLEAR     62  55  78 SW9       30.18R
ROCHELLE*      CLEAR     55  53  95 S6        30.18R
DE KALB*       CLEAR     55  52  89 SW5       30.18R
PERU*          CLEAR     60  56  87 CALM      30.18R
$$

ILZ005-006-012>014-019>023-281100-
NORTHEAST ILLINOIS

CITY           SKY/WX    TMP DP  RH WIND       PRES   REMARKS
CHICAGO-OHARE  PTCLDY    55  53  93 CALM      30.16S
CHICAGO-MIDWAY PTCLDY    61  55  81 CALM      30.16R
AURORA         CLEAR     54  51  90 CALM      30.17R
LANSING*       CLEAR     53  50  91 CALM      30.18R
JOLIET*        CLEAR     55  54  99 S3        30.19R
WAUKEGAN       CLEAR     57  54  89 VRB3      30.15S
DUPAGE AIRPORT CLEAR     54  52  93 CALM      30.16R
KANKAKEE*      CLEAR     55  53  94 CALM      30.19R
WHEELING       CLEAR     55  52  89 CALM      30.17S
MORRIS*        CLEAR     56  55  94 CALM      30.16R
ROMEOVILLE*    CLEAR     56  53  91 SE3       30.17R
NORTHERLY ISL    N/A     59  54  83 S2          N/A
$$

LMZ740>746-281100-
SOUTHERN LAKE MICHIGAN

STATION/POSITION SKY/WX   TEMP    WIND        PRES    VSBY  WAVE
                          AIR SEA DIR/SP/G                  HT/PER
                          (F)     (DEG/KT/KT) (MB)    (MI)  (FT/S)
SOUTHERN BUOY              44 38  200/  8/  8 1021.9S         0
HARRISON CRIB              64     180/  8/  9   N/A
BURNHAM HARBOR             59      CALM  /  4   N/A
CALUMET HARBOR             60      CALM  /  2   N/A
BURNS HARBOR               60     180/  5/  7 1022.0S
MICHIGAN CITY              58     130/  5/  6   N/A
MICHIGAN CITY 6N           55 53  150/  2/  4   N/A           0
ST. JOSEPH                 57 56  140/  4/  6   N/A           0
$$

ILZ025>027-034>036-040-047-049-050-058-095>099-281100-
WEST-CENTRAL ILLINOIS

CITY           SKY/WX    TMP DP  RH WIND       PRES   REMARKS
QUINCY         CLEAR     62  55  77 E3        30.13F
GALESBURG*     CLEAR     56  55  96 CALM      30.16S
MACOMB*        CLEAR     56  55  99 E3        30.17S
JACKSONVILLE*  CLEAR     58  56  92 E5        30.15R
PITTSFIELD*    CLEAR     59  57  93 CALM      30.15S
$$

ILZ028>032-037-038-041>044-048-051>054-059>061-281100-
CENTRAL ILLINOIS

CITY           SKY/WX    TMP DP  RH WIND       PRES   REMARKS
PONTIAC        PTCLDY    57  55  93 CALM      30.18S
BLOOMINGTON    CLEAR     60  53  77 SE6       30.18S
DECATUR        PTCLDY    55  52  89 NE6       30.16F
PEORIA         CLEAR     60  56  86 NE3       30.16S
LACON*         CLEAR     55  53  94 CALM      30.16R
LINCOLN*       PTCLDY    57  54  90 CALM      30.15S
SPRINGFIELD    PTCLDY    59  54  83 CALM      30.16S
TAYLORVILLE    PTCLDY    61  54  77 E7        30.15S
$$

ILZ033-039-045-046-055>057-062-063-281100-
EAST-CENTRAL ILLINOIS

CITY           SKY/WX    TMP DP  RH WIND       PRES   REMARKS
CHAMPAIGN      CLEAR     57  53  86 E7        30.17F
DANVILLE*      CLEAR     53  52  97 CALM      30.16S
RANTOUL*       CLEAR     60  55  83 CALM      30.17S
PARIS*         CLEAR     59  57  92 CALM      30.17F
$$

ILZ079-100>102-281100-
SOUTHWEST ILLINOIS

CITY           SKY/WX    TMP DP  RH WIND       PRES   REMARKS
ALTON          CLEAR     58  58 100 CALM      30.15R
BELLEVILLE     PTCLDY    61  61 100 CALM      30.12S
CAHOKIA*       PTCLDY    62  59  90 CALM      30.12F
SPARTA*        CLOUDY    69  68  97 E3        30.13F
$$

ILZ064>066-069>071-074>076-080>082-084>086-088>090-092>094-281100-
SOUTH-CENTRAL ILLINOIS

CITY           SKY/WX    TMP DP  RH WIND       PRES   REMARKS
CARBONDALE     MOCLDY    66  65  96 SE3       30.13S
CAIRO*         PTCLDY    65  65 100 SE3       30.13F
EFFINGHAM*     MOCLDY    58  55  91 NE3       30.17S
MARION         MOCLDY    66  66 100 CALM      30.14S FOG
MT. VERNON     MOCLDY    61  55  82 CALM      30.14F VSB 1
CENTRALIA*     PTCLDY    59  57  94 CALM      30.13F
SALEM*         PTCLDY    62  60  91 CALM      30.14F
METROPOLIS*    PTCLDY    65  65 100 CALM      30.13F FOG
$$

ILZ067-068-072-073-078-083-087-091-281100-
SOUTHEAST ILLINOIS

CITY           SKY/WX    TMP DP  RH WIND       PRES   REMARKS
LAWRENCEVILLE  FOG       61  60  97 NE3       30.15F VSB 1/2
FLORA*         MOCLDY    62  60  94 CALM      30.15S
FAIRFIELD*     FOG       65  65 100 CALM      30.14S VSB 1/2
HARRISBURG*    MOCLDY    64  64 100 CALM      30.15S FOG
ROBINSON*      PTCLDY    62  58  87 CALM      30.17R
CARMI*         MOCLDY    64  61  88 CALM      30.14S FOG
$$

ABBREVIATIONS USED IN REMARKS
   TC - TEMPERATURE IN CELSIUS
  WCI - WIND CHILL INDEX
   HX - HEAT INDEX
  VSB - VISIBILITY
$$



USA.gov is the U.S. government's official web portal to all federal, state and local government web resources and services.